Terug naar catalogus

STARLINK-4387

ActiefCommunicatiePO
NORAD 53490·PAYLOAD·🇺🇸 United States

Gelanceerd Aug 12, 2022 vanaf Vandenberg Space Force Base

Loading…

Volgende Passages (komende 24 uur)

TLE

VersSource: CelesTrak SupGP

Epoch: Sep 14, 2026, 21:10 UTC

1 53490C 22099AB  26257.88243056  .00812110  00000+0  32404-2 0  2575
2 53490  97.6054  26.0566 0001724  92.4585 271.4713 15.86155100    14

Volg STARLINK-4387 in realtime met AllMySat

Download on the App Store